www.pogodaiklimat.ru
ПОГОДА в Ред-Дог-Майне
Время
и дата
14:59 17.05
05:59 18.05
06:58 18.05
09:05 18.05
10:04 18.05
12:06 18.05
05:59 19.05
07:01 19.05
07:56 19.05
09:02 19.05
09:57 19.05
11:06 19.05
12:06 19.05
13:01 19.05
14:01 19.05
15:04 19.05
15:47 19.05
16:53 19.05
06:04 20.05
06:57 20.05
08:54 20.05
09:53 20.05
10:54 20.05
11:59 20.05
06:02 21.05
07:07 21.05
08:03 21.05
10:45 21.05
12:09 21.05
13:06 21.05
13:58 21.05
15:06 21.05
18:05 21.05
18:51 21.05
05:12 22.05
05:53 22.05
07:12 22.05
08:15 22.05
11:05 22.05
07:00 23.05
07:54 23.05
08:59 23.05
10:13 23.05
10:56 23.05
11:56 23.05
12:56 23.05
14:00 23.05
14:58 23.05
Ветер
(напр.,м/с)
Видим. Явления Облачность Т
(С)
Тd
(С)
f
(%)
Тe
(С)
Тes
(С)
Комфортность P
(гПа)
Po
(гПа)
Тmin
(С)
Tmax
(С)
R
(мм)
R24
(мм)
S
(см)
ЮВ 1 24 км ясно +3.0 -6.0 52 0 +8 982.2
В 1 24 км 8/8 450 м +4.0 -6.0 48 +1 +1 982.5
СВ 1 24 км 10/10 1500 м +4.0 -6.0 48 +1 +1 982.5
В 2 24 км 10/10 1500 м +1.0 -6.0 60 -4 -4 982.8
В 2 24 км 10/8 1800 м
[Ac]
+1.0 -6.0 60 -4 -4 982.8
ЮВ 1 24 км 10/10 1200 м +3.0 -4.0 60 -1 -1 983.8
штиль 0 24 км 2/2 1500 м +1.0 -3.0 75 0 0 989.3
штиль 0 24 км ясно +3.0 -2.0 70 +2 +4 989.7
штиль 0 24 км ясно +4.0 -1.0 70 +3 +5 990.0
штиль 0 24 км 2/2 1650 м +5.0 -1.0 65 +4 +9 990.3
штиль 0 24 км 5/5 630 м +5.0 -1.0 65 +4 +7 991.0
штиль 0 24 км 5/5 690 м +7.0 +1.0 66 +6 +11 991.3
Ю 3 24 км ясно +7.0 +1.0 66 +3 +6 991.6
Ю 2 24 км ясно +8.0 +1.0 61 +5 +10 992.0
Ю 3 24 км ясно +7.0 +1.0 66 +3 +7 992.3
Ю 2 24 км ясно +8.0 +1.0 61 +5 +10 992.3
Ю 2 24 км ясно +8.0 +1.0 61 +5 +10 992.6
Ю 2 24 км ясно +9.0 +1.0 57 +6 +10 992.6
штиль 0 24 км 8/0 2100 м
[Ac]
-2.0 -1.0 100 -3 -3 994.6
СВ 1 24 км 5/5 1800 м +3.0 -1.0 75 0 0 994.6
штиль 0 24 км 2/2 1500 м +5.0 0.0 70 +4 +7 994.6
В 2 24 км 2/0 2100 м
[Ac]
+6.0 0.0 65 +3 +5 994.6
ЮВ 1 24 км 2/0 2100 м
[Ac]
+7.0 0.0 61 +4 +9 994.6
ЮВ 1 24 км 2/0 2100 м
[Ac]
+10.0 +1.0 54 +8 +14 994.6
СВ 1 24 км ясно +6.0 -1.0 61 +3 +4 990.0
СВ 1 24 км ясно +8.0 0.0 57 +6 +7 990.0
СВ 1 24 км ясно +10.0 0.0 50 +8 +10 990.0
ЮВ 1 24 км ясно +10.0 -1.0 46 +8 +13 989.7
В 1 24 км ясно +10.0 -1.0 46 +9 +18 989.0
ЮВ 2 24 км ясно +13.0 0.0 41 +12 +18 988.7
В 1 24 км ясно +13.0 0.0 41 +12 +20 988.7
В 1 24 км ясно +15.0 -1.0 33 +15 +23 988.0
С 2 24 км ясно +15.0 0.0 36 +14 +17 987.1
С 2 24 км ясно +14.0 0.0 38 +13 +15 986.7
штиль 0 24 км ясно +9.0 -2.0 46 +9 +9 983.8
С 1 24 км ясно +13.0 -1.0 38 +12 +12 983.8
СВ 2 24 км ясно +6.0 -4.0 49 +2 +3 983.8
В 2 24 км ясно +7.0 -4.0 45 +4 +6 983.8
СВ 4 24 км ясно +9.0 -5.0 37 +5 +7 983.8
СВ 1 24 км 5/0 3000 м
[Ac]
+6.0 -4.0 49 +4 +5 979.2
штиль 0 24 км 5/0 3000 м
[Ac]
+7.0 -4.0 45 +7 +8 979.2
штиль 0 24 км 5/0 3000 м
[Ac]
+4.0 -5.0 52 +4 +6 979.2
штиль 0 24 км 5/0 3000 м
[Ac]
+8.0 -5.0 39 +8 +13 979.2
В 1 24 км 5/0 3000 м
[Ac]
+9.0 -6.0 34 +8 +12 979.2
ЮВ 2 24 км 5/0 3000 м
[Ac]
+11.0 -5.0 32 +9 +13 978.9
Ю 1 24 км 2/0 3000 м
[Ac]
+11.0 -5.0 32 +10 +16 978.9
штиль 0 24 км 2/0 3000 м
[Ac]
+12.0 -3.0 35 +12 +24 опасность
простуды
978.6
З 2 24 км 2/0 3000 м
[Ac]
+13.0 -5.0 28 +11 +16 978.6
Местоположение метеостанции Red Dog Airport: широта 68.0300 долгота -162.9000 высота над уровнем моря 297 м.
В архиве по умолчанию представлена погода в Ред-Дог-Майне за последние 1-2 суток. Обновление информации о фактической погоде в базе происходит ежечасно! Архивные данные за месяц целиком и за предыдущие месяцы Вы можете получить, выбрав интересующий диапазон дат из раскрывающегося списка и нажав кнопку "Ввод!".
Внимание! Архив погоды МЕТАР в базе сайта по станциям, не включенным в климатический монитор, хранится не более 60 дней. Нет смысла пытаться выбрать более раннюю дату.
*Определитесь, кто Вы:
Внимание! Время в таблицах - местное (без учета летнего времени). Для получения всемирного времени необходимо вычесть поправку, которая равна -9 ч.
Смотрите также архив погоды в соседних городах и на ближайших метеорологических станциях:
Партнеры нашего сайта:      
Пояснения к столбцам:
  • Ветер - указаны скорость ветра в м/с - средняя за 10 мин, порывы в срок и между сроками (в фигурных скобках) и направление, откуда дует ветер: С - северный,
  • СВ - северо-восточный, В - восточный, ЮВ - юго-восточный, Ю - южный, ЮЗ - юго-западный, З - западный, СЗ - северо-западный.
  • Видимость - горизонтальная дальность видимости в метрах или километрах. При видимости от 1 до 10 км при отсутствии осадков обычно наблюдается дымка, при ухудшении видимости до 1 км и менее - туман. В сухую погоду видимость может ухудшаться дымом, пылью или мглою.
  • Явления - указаны атмосферные явления, наблюдавшиеся в срок или в последний час перед сроком; фигурными скобками обозначены явления, наблюдавшиеся между сроками (за 1-3 часа до срока); квадратными скобками обозначены град или гололедные отложения с указанием их диаметра в мм.
  • Облачность - указаны через наклонную черту общая и нижняя облачность в баллах и высота нижней границы облаков в метрах; квадратными скобками обозначены формы облаков: Ci - перистые, Cs - перисто-слоистые, Cc - перисто-кучевые, Ac - высококучевые, As - высокослоистые, Sc - слоисто-кучевые, Ns - слоисто-дождевые, Cu - кучевые, Cb - кучево-дождевые. Подробнее классификацию облаков см. в Атласе облаков (PDF).
  • T - Температура воздуха - температура, измеренная на высоте 2 м над землей.
  • Td - Температура точки росы - температура, при понижении до которой содержащийся в воздухе водяной пар достигнет насыщения.
  • f - Относительная влажность воздуха - влажноcть воздуха, измеренная на высоте 2 м над землей.
  • Te - Эффективная температура - температура, которую ощущает одетый по сезону человек в тени. Характеристика душности погоды. При расчете учитывается влияние влажности воздуха и скорости ветра на теплоощущения человека.
  • Tes - Эффективная температура на солнце - температура, которую ощущает человек, с поправкой на солнечный нагрев. Характеристика знойности погоды. Зависит от высоты солнца над горизонтом, облачности и скорости ветра. Ночью, в пасмурную погоду, а также при ветре 12 м/с и более поправка равна нулю.
  • P - Атмосферное давление - приведенное к уровню моря атмосферное давление.
  • Po - Атмосферное давление - измеренное на уровне метеостанции атмосферное давление.
  • Tmin - Минимальная температура - минимум температуры воздуха на высоте 2 м над землей.
  • Tmax - Максимальная температура - максимум температуры воздуха на высоте 2 м над землей.
  • R - Количество осадков - Количество выпавших осадков за период времени, мм. При наведении курсора мыши на число - период времени, за который выпало указанное количество осадков.
  • R24 - Количество осадков - Количество выпавших осадков за 24 часа, мм.
  • S - Снежный покров - Высота снежного покрова, см. При наведении курсора мыши на число - состояние снежного покрова и степень покрытия местности в баллах.